Location: Cincinnati Observatory Center
(39.1389°N, 84.4225°W)
Time: 19:39:23
(UTC-04:00)

Amateur Radio Satellites - All Passes

Search period start: 30 October 2014 19:09
Search period end: 31 October 2014 19:09
Location: Cincinnati Observatory Center, 39.1389°N, 84.4225°W

Satellite Date Start Highest point End Downlink Frequencies (MHz)
Time Altitude Azimuth
JAS-2 30 Oct 19:33:07 19:38:15 27° 269° (W) 19:43:57 435.800 - 435.900 CW/SSB, 435.910 FM
ISS 30 Oct 19:36:23 19:37:12 11° 232° (SW) 19:38:01 145.800 FM
SO-67 30 Oct 19:55:40 19:59:05 82° 77° (ENE) 20:02:32 435.3500 MHz FM
KITSAT 1 30 Oct 20:14:25 20:21:59 41° 50° (NE) 20:29:30 435.175 FM
RS-15 30 Oct 20:17:24 20:24:27 20° 100° (E) 20:31:24 29.354 - 29.394 USB, Beacon 29.352 USB
SO-50 30 Oct 20:17:56 20:22:06 28° 49° (NE) 20:26:18 436.795 FM
OPAL 30 Oct 20:19:39 20:23:14 21° 297° (WNW) 20:26:49 ?
HO-68 30 Oct 20:22:06 20:27:34 24° 59° (ENE) 20:33:02 435.675 MHz FM
STRAND 1 30 Oct 20:34:37 20:39:48 84° 104° (ESE) 20:44:56 ?
UOSAT-12 30 Oct 21:08:26 21:09:43 11° 37° (NE) 21:11:01 437.025 FM, 437.400 FM
Oscar 10/S400 30 Oct 21:38:30 22:19:34 52° 204° (SSW) 06:59:02 145.825 - 145.975 CW/USB, Beacon 145.810 USB
SO-50 30 Oct 21:58:15 22:02:44 37° 245° (WSW) 22:07:13 436.795 FM
UKube-1 30 Oct 22:04:44 22:08:50 43° 72° (ENE) 22:12:59 145.840 MHz, 145.915 MHz
HO-68 30 Oct 22:07:33 22:14:39 66° 257° (WSW) 22:21:49 435.675 MHz FM
KITSAT 1 30 Oct 22:09:51 22:17:26 46° 250° (WSW) 22:24:59 435.175 FM
ZACube-1 30 Oct 22:13:00 22:16:26 22° 68° (ENE) 22:19:49 437.345 MHz
STRAND 1 30 Oct 22:16:21 22:18:14 12° 300° (WNW) 22:20:07 ?
RS-15 30 Oct 22:24:07 22:35:09 88° 119° (ESE) 22:46:08 29.354 - 29.394 USB, Beacon 29.352 USB
MaSat-1 30 Oct 22:29:15 22:32:38 27° 109° (ESE) 22:35:46 437.345 MHz
Oscar 11 30 Oct 22:40:11 22:44:31 82° 258° (WSW) 22:48:51 145.825 FM, Beacon 2401.500 USB
UOSAT-12 30 Oct 22:46:04 22:50:47 67° 57° (ENE) 22:55:23 437.025 FM, 437.400 FM
FUNcube-1 30 Oct 22:54:51 22:59:19 60° 75° (ENE) 23:03:43 145.950 - 145.970 MHz USB
UKube-1 30 Oct 23:42:35 23:45:13 16° 267° (W) 23:47:51 145.840 MHz, 145.915 MHz
ZACube-1 30 Oct 23:48:27 23:52:36 34° 263° (W) 23:56:42 437.345 MHz
MaSat-1 31 Oct 00:05:05 00:08:01 20° 301° (WNW) 00:10:45 437.345 MHz
UOSAT-12 31 Oct 00:28:15 00:30:19 13° 253° (WSW) 00:32:22 437.025 FM, 437.400 FM
FUNcube-1 31 Oct 00:34:17 00:36:00 12° 269° (W) 00:37:43 145.950 - 145.970 MHz USB
RS-15 31 Oct 00:39:48 00:49:01 30° 325° (NW) 00:58:20 29.354 - 29.394 USB, Beacon 29.352 USB
JAS-1B 31 Oct 01:57:47 02:03:20 22° 94° (E) 02:09:31 435.800 - 435.900 CW/SSB
Oscar 16 31 Oct 02:13:38 02:17:26 21° 94° (E) 02:21:13 437.025 USB, Beacon 2401.1428
Sapphire 31 Oct 02:23:10 02:27:23 24° 107° (ESE) 02:31:37 437.095 MHz 1200 baud AX-25 AFSK
PCSat 31 Oct 02:43:56 02:48:56 40° 111° (ESE) 02:53:59 145.825 MHz
Uribyol 2 31 Oct 02:45:54 02:49:17 17° 92° (E) 02:52:37 436.500 FM
AO-Echo 31 Oct 02:52:57 02:57:25 27° 95° (E) 03:01:50 ?
ITAMSAT 1 31 Oct 02:53:27 02:57:09 19° 93° (E) 03:00:49 435.822 SSB
RS-15 31 Oct 03:00:03 03:06:37 17° 1° (N) 03:13:16 29.354 - 29.394 USB, Beacon 29.352 USB
Oscar 19 31 Oct 03:04:55 03:10:01 65° 102° (ESE) 03:15:05 437.125 CW, 437.150 USB
AO-27 31 Oct 03:39:51 03:45:00 56° 101° (E) 03:50:06 436.795 MHz FM
JAS-1B 31 Oct 03:47:02 03:54:09 72° 287° (WNW) 04:02:40 435.800 - 435.900 CW/SSB
Oscar 16 31 Oct 03:52:07 03:56:57 44° 289° (WNW) 04:01:47 437.025 USB, Beacon 2401.1428
Gurwin Techsat 1B 31 Oct 03:52:25 03:57:22 39° 98° (E) 04:02:17 435.225 FM
TMSAT-1 31 Oct 03:59:16 04:04:02 33° 97° (E) 04:08:46 436.925 FM
Sapphire 31 Oct 04:05:19 04:10:29 45° 304° (WNW) 04:15:42 437.095 MHz 1200 baud AX-25 AFSK
Uribyol 2 31 Oct 04:24:00 04:29:03 53° 288° (WNW) 04:34:04 436.500 FM
PCSat 31 Oct 04:27:47 04:32:26 29° 308° (NW) 04:37:08 145.825 MHz
AO-Echo 31 Oct 04:31:21 04:36:12 36° 291° (WNW) 04:40:58 ?
ITAMSAT 1 31 Oct 04:31:52 04:36:53 48° 289° (WNW) 04:41:51 435.822 SSB
Oscar 19 31 Oct 04:45:55 04:48:47 15° 298° (WNW) 04:51:39 437.125 CW, 437.150 USB
Uosat F 31 Oct 04:46:22 04:47:45 11° 90° (E) 04:49:07 435.120 FM
AO-7 31 Oct 04:59:28 05:06:35 31° 96° (E) 05:13:40 29.400 - 29.500 MHz
PANSAT 31 Oct 05:12:28 05:14:09 13° 168° (SSE) 05:15:50 not established
RS-15 31 Oct 05:14:39 05:24:11 31° 36° (NE) 05:33:57 29.354 - 29.394 USB, Beacon 29.352 USB
AO-27 31 Oct 05:20:35 05:24:02 18° 297° (WNW) 05:27:29 436.795 MHz FM
Gurwin Techsat 1B 31 Oct 05:32:48 05:37:07 26° 294° (WNW) 05:41:25 435.225 FM
TMSAT-1 31 Oct 05:39:17 05:43:50 30° 293° (WNW) 05:48:21 436.925 FM
JAS-1B 31 Oct 05:40:47 05:43:51 13° 303° (WNW) 05:47:07 435.800 - 435.900 CW/SSB
OPAL 31 Oct 05:53:38 05:58:44 74° 72° (ENE) 06:03:47 ?
STRAND 1 31 Oct 06:13:39 06:16:01 13° 61° (ENE) 06:18:23 ?
Hamsat 31 Oct 06:15:05 06:16:30 11° 91° (E) 06:17:56 145.90 MHz
Uosat F 31 Oct 06:22:00 06:27:04 77° 285° (WNW) 06:32:05 435.120 FM
JAS-2 31 Oct 06:41:41 06:49:23 54° 99° (E) 06:56:45 435.800 - 435.900 CW/SSB, 435.910 FM
Saudisat 1A 31 Oct 06:43:55 06:48:17 78° 120° (ESE) 06:52:42 436.775 MHz
PANSAT 31 Oct 06:51:07 06:53:37 17° 180° (S) 06:56:07 not established
AO-7 31 Oct 06:51:35 06:59:41 58° 294° (WNW) 07:07:46 29.400 - 29.500 MHz
RS-15 31 Oct 07:26:47 07:38:03 88° 241° (WSW) 07:49:49 29.354 - 29.394 USB, Beacon 29.352 USB
OPAL 31 Oct 07:36:09 07:38:04 12° 267° (W) 07:39:59 ?
Hamsat 31 Oct 07:48:38 07:52:45 54° 286° (WNW) 07:56:54 145.90 MHz
STRAND 1 31 Oct 07:49:23 07:54:31 77° 257° (WSW) 07:59:42 ?
MaSat-1 31 Oct 08:14:43 08:16:49 24° 60° (ENE) 08:18:49 437.345 MHz
Saudisat 1A 31 Oct 08:26:06 08:28:24 14° 318° (NW) 08:30:42 436.775 MHz
JAS-2 31 Oct 08:27:11 08:33:57 33° 296° (WNW) 08:40:35 435.800 - 435.900 CW/SSB, 435.910 FM
PANSAT 31 Oct 08:31:36 08:33:05 12° 193° (SSW) 08:34:33 not established
AO-7 31 Oct 08:47:45 08:50:41 12° 314° (NW) 08:53:38 29.400 - 29.500 MHz
SO-67 31 Oct 08:52:40 08:56:07 69° 283° (WNW) 08:59:31 435.3500 MHz FM
HO-68 31 Oct 09:37:15 09:43:03 26° 94° (E) 09:48:48 435.675 MHz FM
RS-15 31 Oct 09:41:25 09:48:53 21° 260° (W) 09:56:36 29.354 - 29.394 USB, Beacon 29.352 USB
Oscar 11 31 Oct 10:29:46 10:32:53 19° 94° (E) 10:36:00 145.825 FM, Beacon 2401.500 USB
ISS 31 Oct 10:38:52 10:42:02 44° 136° (SE) 10:45:13 145.800 FM
KITSAT 1 31 Oct 10:42:19 10:49:04 31° 106° (ESE) 10:55:50 435.175 FM
FUNcube-1 31 Oct 10:47:28 10:48:49 11° 91° (E) 10:50:09 145.950 - 145.970 MHz USB
Sapphire 31 Oct 11:11:51 11:15:33 18° 46° (NE) 11:19:14 437.095 MHz 1200 baud AX-25 AFSK
HO-68 31 Oct 11:24:04 11:31:05 58° 291° (WNW) 11:38:04 435.675 MHz FM
UKube-1 31 Oct 11:29:43 11:34:06 86° 284° (WNW) 11:38:27 145.840 MHz, 145.915 MHz
PCSat 31 Oct 11:32:59 11:37:36 27° 51° (NE) 11:42:11 145.825 MHz
ZACube-1 31 Oct 11:38:31 11:42:34 47° 99° (E) 11:46:34 437.345 MHz
Oscar 11 31 Oct 12:05:15 12:09:08 34° 289° (WNW) 12:13:00 145.825 FM, Beacon 2401.500 USB
SO-50 31 Oct 12:11:35 12:16:04 85° 301° (WNW) 12:20:43 436.795 FM
ISS 31 Oct 12:16:04 12:18:51 24° 333° (NNW) 12:21:38 145.800 FM
FUNcube-1 31 Oct 12:21:27 12:25:32 52° 286° (WNW) 12:29:33 145.950 - 145.970 MHz USB
KITSAT 1 31 Oct 12:36:03 12:43:59 59° 305° (NW) 12:51:58 435.175 FM
Oscar 19 31 Oct 12:46:54 12:47:17 10° 59° (ENE) 12:47:40 437.125 CW, 437.150 USB
JAS-1B 31 Oct 12:47:08 12:48:50 11° 56° (ENE) 12:50:32 435.800 - 435.900 CW/SSB
Sapphire 31 Oct 12:54:06 12:59:32 73° 245° (WSW) 13:04:55 437.095 MHz 1200 baud AX-25 AFSK
UOSAT-12 31 Oct 12:56:46 13:00:34 26° 112° (ESE) 13:04:26 437.025 FM, 437.400 FM
PCSat 31 Oct 13:16:03 13:21:09 43° 249° (WSW) 13:26:12 145.825 MHz
HO-68 31 Oct 13:16:16 13:17:16 10° 310° (NW) 13:18:16 435.675 MHz FM
ZACube-1 31 Oct 13:16:25 13:18:33 14° 295° (WNW) 13:20:40 437.345 MHz
Oscar 16 31 Oct 13:29:29 13:33:48 28° 67° (ENE) 13:38:07 437.025 USB, Beacon 2401.1428
SO-50 31 Oct 13:55:19 13:57:22 13° 321° (NW) 13:59:26 436.795 FM
ISS 31 Oct 13:55:56 13:56:29 10° 353° (N) 13:57:03 145.800 FM
Uribyol 2 31 Oct 14:02:30 14:06:40 25° 66° (ENE) 14:10:51 436.500 FM
AO-Echo 31 Oct 14:04:49 14:09:07 30° 68° (ENE) 14:13:33 ?
ITAMSAT 1 31 Oct 14:10:15 14:14:35 27° 67° (ENE) 14:18:56 435.822 SSB
Oscar 19 31 Oct 14:20:38 14:25:47 84° 75° (ENE) 14:30:56 437.125 CW, 437.150 USB
JAS-1B 31 Oct 14:32:50 14:38:38 88° 255° (WSW) 14:44:23 435.800 - 435.900 CW/SSB
UOSAT-12 31 Oct 14:36:17 14:40:33 35° 309° (NW) 14:44:54 437.025 FM, 437.400 FM
KITSAT 1 31 Oct 14:36:32 14:41:18 16° 329° (NNW) 14:46:05 435.175 FM
AO-27 31 Oct 14:56:49 15:02:01 76° 74° (ENE) 15:07:15 436.795 MHz FM
Oscar 16 31 Oct 15:08:23 15:13:01 33° 263° (W) 15:17:39 437.025 USB, Beacon 2401.1428
Saudisat 1A 31 Oct 15:11:40 15:15:55 44° 54° (NE) 15:20:09 436.775 MHz
Gurwin Techsat 1B 31 Oct 15:12:20 15:17:29 55° 72° (ENE) 15:22:41 435.225 FM
TMSAT-1 31 Oct 15:18:50 15:23:53 46° 71° (ENE) 15:28:56 436.925 FM
ISS 31 Oct 15:32:50 15:34:23 13° 14° (NNE) 15:35:57 145.800 FM
Uribyol 2 31 Oct 15:41:02 15:45:54 39° 262° (W) 15:50:48 436.500 FM
AO-Echo 31 Oct 15:43:28 15:47:48 30° 264° (W) 15:52:17 ?
ITAMSAT 1 31 Oct 15:49:09 15:53:54 35° 262° (W) 15:58:41 435.822 SSB
AO-7 31 Oct 15:57:19 16:04:45 39° 61° (ENE) 16:12:12 29.400 - 29.500 MHz
Uosat F 31 Oct 15:57:58 16:00:52 16° 62° (ENE) 16:03:47 435.120 FM
Oscar 19 31 Oct 16:05:19 16:05:43 10° 271° (W) 16:06:06 437.125 CW, 437.150 USB
AO-27 31 Oct 16:40:11 16:42:04 12° 270° (W) 16:43:57 436.795 MHz FM
Saudisat 1A 31 Oct 16:52:08 16:55:08 18° 250° (WSW) 16:58:08 436.775 MHz
JAS-2 31 Oct 16:54:08 16:58:41 21° 58° (ENE) 17:03:35 435.800 - 435.900 CW/SSB, 435.910 FM
Gurwin Techsat 1B 31 Oct 16:54:19 16:57:46 17° 268° (W) 17:01:15 435.225 FM
TMSAT-1 31 Oct 17:00:06 17:04:00 21° 267° (W) 17:07:55 436.925 FM
ISS 31 Oct 17:08:34 17:11:46 43° 33° (NNE) 17:14:58 145.800 FM
Uosat F 31 Oct 17:34:08 17:39:06 62° 258° (WSW) 17:44:07 435.120 FM
AO-7 31 Oct 17:49:30 17:57:20 47° 259° (W) 18:05:15 29.400 - 29.500 MHz
OPAL 31 Oct 18:05:37 18:09:13 20° 96° (E) 18:12:48 ?
KITSAT 1 31 Oct 18:36:13 18:40:59 16° 31° (NNE) 18:45:44 435.175 FM
JAS-2 31 Oct 18:36:38 18:42:49 72° 259° (WSW) 18:49:55 435.800 - 435.900 CW/SSB, 435.910 FM
Hamsat 31 Oct 18:40:26 18:44:37 89° 73° (ENE) 18:48:49 145.90 MHz
ISS 31 Oct 18:45:46 18:48:15 20° 229° (SW) 18:50:44 145.800 FM
SO-50 31 Oct 19:06:10 19:07:25 11° 37° (NE) 19:08:40 436.795 FM
